Location: Karaa?a�
(36.7158°N, 30.4165°E)
Time: 09:21:59
(UTC+00:00)

Cosmos 921 Rocket - Pass Details

Date: 09 April 2020
Orbit: 572 x 632 km, 75.8° (Epoch: 31 May)

Event Time Altitude Azimuth Distance (km) Brightness Sun altitude
Rises 17:25:27 0° 357° (N) 2,784 6.7 -12.0°
Reaches altitude 10° 17:27:58 10° 11° (N) 1,885 5.7 -12.4°
Maximum altitude 17:31:27 25° 68° (ENE) 1,176 4.1 -13.1°
Enters shadow 17:32:53 21° 99° (E) 1,325 4.1 -13.4°
